Home > Weather > Volos > Past weeks

Flag for Greece Weather for the Past 2 Weeks in Volos, Greece

Now
43 °F

Passing clouds.


Feels Like: 41 °F
Forecast: 53 / 64 °F
Wind: 3 mph from North

Location: Thessaloniki Airport

Current Time: Feb 12, 2016 at 4:14:48 AM

Latest Report: Feb 12, 2016 at 2:50 AM


Visibility: N/A

Pressure: 29.83 "Hg

Humidity: 87%

Dew point: 39 °F

Location of VolosLocation

Historic Weather in Volos — Graph

°F

Volos Temperature Yesterday

Maximum temperature yesterday: 63 °F (at 1:20 PM)
Minimum temperature yesterday: 48 °F (at 11:20 PM)
Average temperature yesterday: 56 °F

High & Low Weather Summary for the Past Weeks

 TemperatureHumidityPressure
High64 °F (Jan 30, 3:20 PM)100% (Jan 28, 5:50 AM)30.45 "Hg (Jan 28, 5:50 AM)
Low30 °F (Feb 7, 7:20 AM)22% (Feb 11, 1:20 PM)29.53 "Hg (Feb 10, 10:50 PM)
Average48 °F71%30.15 "Hg
* Reported Jan 28 2:50 AM — Feb 12 2:20 AM, Volos, Weather by CustomWeather, © 2016

Note: Actual official high and low records may vary slightly from our data, if they occured in-between our weather recording intervals... More about our weather records

Advertising

Volos Weather History for the Previous 24 Hours

 ConditionsComfort  
Time TempWeatherWind HumidityBarometerVisibility
2:20 AM
Fri, Feb 12
45 °FPassing clouds.5 mph81%29.80 "HgN/A
1:50 AM43 °FPassing clouds.5 mph81%29.83 "HgN/A
1:20 AM45 °FPassing clouds.6 mph76%29.80 "HgN/A
12:50 AM48 °FPassing clouds.3 mph71%29.80 "HgN/A
11:20 PM
Thu, Feb 11
48 °FPassing clouds.No wind66%29.80 "HgN/A
10:50 PM52 °FPassing clouds.No wind58%29.80 "HgN/A
10:20 PM52 °FPassing clouds.No wind58%29.80 "HgN/A
9:50 PM54 °FPassing clouds.No wind58%29.83 "HgN/A
9:20 PM54 °FPassing clouds.3 mph51%29.80 "HgN/A
8:50 PM54 °FClear.1 mph47%29.83 "Hg10 mi
8:20 PM54 °FClear.3 mph47%29.83 "Hg10 mi
7:50 PM55 °FClear.2 mph47%29.83 "Hg10 mi
7:20 PM55 °FPassing clouds.3 mph41%29.80 "HgN/A
6:50 PM55 °FPassing clouds.3 mph47%29.83 "HgN/A
6:20 PM57 °FPassing clouds.3 mph44%29.83 "HgN/A
5:50 PM57 °FPartly sunny.6 mph39%29.83 "HgN/A
5:20 PM59 °FPartly sunny.2 mph34%29.80 "HgN/A
4:50 PM57 °FPartly sunny.5 mph41%29.80 "HgN/A
4:20 PM59 °FPartly sunny.1 mph36%29.83 "HgN/A
3:50 PM57 °FPartly sunny.5 mph41%29.83 "HgN/A
3:20 PM59 °FPartly sunny.3 mph31%29.80 "HgN/A
2:50 PM61 °FPartly sunny.1 mph25%29.80 "HgN/A
2:20 PM63 °FPartly sunny.1 mph22%29.80 "HgN/A
1:50 PM61 °FPartly sunny.5 mph23%29.83 "HgN/A
1:20 PM63 °FSunny.5 mph22%29.83 "Hg10 mi
12:50 PM61 °FSunny.5 mph25%29.83 "Hg10 mi
12:20 PM61 °FSunny.5 mph25%29.83 "Hg10 mi
11:50 AM61 °FSunny.5 mph29%29.86 "Hg10 mi
11:20 AM57 °FSunny.7 mph41%29.86 "Hg10 mi
10:50 AM57 °FSunny.7 mph41%29.86 "Hg10 mi
10:20 AM55 °FSunny.7 mph47%29.83 "Hg10 mi
9:50 AM54 °FSunny.7 mph51%29.83 "Hg10 mi
9:20 AM54 °FPassing clouds.8 mph47%29.83 "HgN/A
8:50 AM54 °FPassing clouds.9 mph47%29.80 "HgN/A
8:20 AM54 °FPassing clouds.8 mph44%29.80 "HgN/A
7:50 AM52 °FPassing clouds.6 mph62%29.80 "HgN/A
7:20 AM50 °FPassing clouds.8 mph62%29.77 "HgN/A
6:50 AM52 °FPassing clouds.3 mph62%29.77 "HgN/A
6:20 AM54 °FPassing clouds.12 mph54%29.74 "HgN/A
5:50 AM54 °FPartly cloudy.13 mph54%29.71 "HgN/A
4:50 AM52 °FPartly cloudy.6 mph77%29.68 "HgN/A
Weather by CustomWeather, © 2016

See weather overviewHow to use our weather pages